4XHRO LLRS-LLMG

Flight info

Callsign 4XHRO
Flight time N/A
Altitude 1200
Route SUPER TYONA CLORE RIDNG HTZUK ARENA APOLN SFAIM VINGT PELEG SHARO HADRA EIRON ZMGID LLMG
Aircraft SIRA/L-VD/A

Departure

Time 2026-05-07 20:47
Airport Rishon Lezion Airfield (LLRS)

Arrival

Time N/A
Airport Megiddo Airport (LLMG)
Time Latitude Longitude Altitude Speed Heading
2026-05-07 20:39 31.96740 34.75318 71 ft 0 kts 264°
2026-05-07 20:42 31.96740 34.75316 71 ft 1 kts 247°
2026-05-07 20:42 31.96700 34.75334 71 ft 11 kts 174°
2026-05-07 20:42 31.96605 34.75336 71 ft 15 kts 178°
2026-05-07 20:43 31.96580 34.75337 68 ft 0 kts 180°
2026-05-07 20:43 31.96578 34.75337 70 ft 0 kts 180°
2026-05-07 20:44 31.96578 34.75336 70 ft 0 kts 181°
2026-05-07 20:44 31.96578 34.75337 70 ft 0 kts 181°
2026-05-07 20:45 31.96577 34.75336 71 ft 1 kts 181°
2026-05-07 20:45 31.96509 34.75336 77 ft 13 kts 179°
2026-05-07 20:46 31.96425 34.75346 81 ft 5 kts 140°
2026-05-07 20:46 31.96449 34.75356 81 ft 19 kts
2026-05-07 20:46 31.96739 34.75359 123 ft 56 kts
2026-05-07 20:46 31.97161 34.75353 265 ft 69 kts 352°
2026-05-07 20:47 31.97422 34.74877 452 ft 85 kts 267°
2026-05-07 20:47 31.96969 34.74466 583 ft 100 kts 181°
2026-05-07 20:47 31.96282 34.74675 662 ft 103 kts 166°
2026-05-07 20:47 31.95942 34.75113 661 ft 67 kts 45°
2026-05-07 20:48 31.95901 34.75681 513 ft 86 kts 148°
2026-05-07 20:48 31.95794 34.75392 452 ft 68 kts 336°
2026-05-07 20:48 31.96335 34.75361 140 ft 81 kts
2026-05-07 20:48 31.96827 34.75359 106 ft 57 kts
2026-05-07 20:49 31.97173 34.75362 249 ft 50 kts 358°
2026-05-07 20:49 31.97143 34.75000 330 ft 87 kts 197°
2026-05-07 20:49 31.96522 34.74809 459 ft 98 kts 189°
2026-05-07 20:49 31.95828 34.74737 563 ft 91 kts 167°
2026-05-07 20:50 31.95519 34.75251 439 ft 80 kts 79°
2026-05-07 20:50 31.95897 34.75374 356 ft 77 kts 353°
2026-05-07 20:50 31.96438 34.75359 94 ft 77 kts
2026-05-07 20:50 31.96915 34.75373 182 ft 65 kts
2026-05-07 20:51 31.97387 34.75191 332 ft 78 kts 324°
2026-05-07 20:51 31.97757 34.74685 497 ft 84 kts 316°
2026-05-07 20:51 31.98223 34.74219 594 ft 92 kts 332°
2026-05-07 20:51 31.98792 34.73865 722 ft 91 kts 337°
2026-05-07 20:52 31.99380 34.73567 780 ft 99 kts 346°
2026-05-07 20:52 32.00092 34.73443 763 ft 104 kts
2026-05-07 20:52 32.00762 34.73562 878 ft 98 kts 19°
2026-05-07 20:52 32.01492 34.73741 644 ft 114 kts
2026-05-07 20:53 32.02224 34.73877 663 ft 103 kts 11°
2026-05-07 20:53 32.02940 34.74032 633 ft 105 kts
2026-05-07 20:53 32.03631 34.74198 676 ft 99 kts 14°
2026-05-07 20:53 32.04292 34.74434 772 ft 95 kts 19°
2026-05-07 20:54 32.04897 34.74736 788 ft 99 kts 33°
2026-05-07 20:54 32.05452 34.75277 713 ft 111 kts 40°
2026-05-07 20:54 32.06089 34.75381 608 ft 112 kts 303°
2026-05-07 20:54 32.05672 34.74705 546 ft 122 kts 187°
2026-05-07 20:55 32.04851 34.74585 533 ft 118 kts 197°
2026-05-07 20:55 32.04051 34.74346 525 ft 120 kts 195°
2026-05-07 20:55 32.03247 34.74102 475 ft 118 kts 197°
2026-05-07 20:55 32.02485 34.73829 492 ft 112 kts 199°
2026-05-07 20:56 32.01755 34.73521 535 ft 110 kts 206°
2026-05-07 20:56 32.01015 34.73324 542 ft 111 kts 187°
2026-05-07 20:56 32.00254 34.73180 524 ft 111 kts 205°
2026-05-07 20:56 31.99533 34.72870 533 ft 111 kts 190°
2026-05-07 20:57 31.98860 34.73200 565 ft 112 kts 133°
2026-05-07 20:57 31.98368 34.73896 636 ft 108 kts 134°
2026-05-07 20:57 31.97703 34.74311 654 ft 110 kts 156°
2026-05-07 20:57 31.96952 34.74498 694 ft 112 kts 176°
2026-05-07 20:58 31.96192 34.74563 736 ft 100 kts 176°
2026-05-07 20:58 31.95762 34.75012 671 ft 89 kts 83°
2026-05-07 20:58 31.96156 34.75365 229 ft 79 kts 354°
2026-05-07 20:58 31.96596 34.75358 69 ft 48 kts
2026-05-07 20:59 31.96693 34.75355 72 ft 10 kts 357°
2026-05-07 20:59 31.96728 34.75343 69 ft 5 kts 264°
2026-05-07 20:59 31.96718 34.75331 71 ft 0 kts 187°